| time (UTC) | temp F | wind direction | speed knots | gust knots | rain 1hr in | rain 24hr in | rain mn in | humidity % | barometer mb |
| 20260506234518 | 55 | 349 | 0.9 | 3.5 | 0.00 | 0.56 | 0.25 | 59 | 1012.5 |
| 20260506233518 | 55 | 344 | 0.9 | 2.6 | 0.00 | 0.56 | 0.25 | 58 | 1012.4 |
| 20260506232518 | 55 | 334 | 0.9 | 3.5 | 0.00 | 0.56 | 0.25 | 58 | 1012.7 |
| 20260506231521 | 55 | 332 | 0.9 | 2.6 | 0.00 | 0.56 | 0.25 | 58 | 1012.8 |
| 20260506230518 | 55 | 324 | 0.9 | 3.5 | 0.00 | 0.56 | 0.25 | 58 | 1012.9 |
| 20260506225518 | 56 | 348 | 0.9 | 2.6 | 0.00 | 0.56 | 0.25 | 58 | 1012.9 |
| 20260506224519 | 56 | 320 | 0.0 | 2.6 | 0.00 | 0.57 | 0.25 | 57 | 1013.0 |
| 20260506223520 | 55 | 316 | 0.0 | 1.7 | 0.00 | 0.57 | 0.25 | 58 | 1013.2 |
| 20260506222522 | 55 | 320 | 1.7 | 5.2 | 0.00 | 0.60 | 0.25 | 56 | 1013.1 |
| 20260506221520 | 56 | 331 | 1.7 | 5.2 | 0.00 | 0.61 | 0.25 | 56 | 1012.8 |
| 20260506220520 | 56 | 318 | 0.9 | 4.3 | 0.00 | 0.62 | 0.25 | 56 | 1012.5 |
| 20260506215520 | 56 | 315 | 0.9 | 3.5 | 0.00 | 0.63 | 0.25 | 56 | 1012.4 |
| 20260506214518 | 56 | 323 | 1.7 | 5.2 | 0.00 | 0.69 | 0.25 | 56 | 1012.3 |
| 20260506213520 | 56 | 301 | 1.7 | 4.3 | 0.00 | 0.69 | 0.25 | 58 | 1012.2 |
| 20260506212518 | 57 | 308 | 1.7 | 6.1 | 0.00 | 0.69 | 0.25 | 57 | 1012.1 |
| 20260506211520 | 57 | 280 | 0.9 | 5.2 | 0.00 | 0.69 | 0.25 | 57 | 1012.0 |
| 20260506210520 | 57 | 304 | 0.9 | 3.5 | 0.00 | 0.69 | 0.25 | 57 | 1012.0 |
| 20260506205518 | 57 | 306 | 0.9 | 3.5 | 0.00 | 0.69 | 0.25 | 56 | 1011.9 |
| 20260506204519 | 57 | 319 | 1.7 | 3.5 | 0.00 | 0.69 | 0.25 | 57 | 1011.9 |
| 20260506203519 | 58 | 301 | 2.6 | 6.1 | 0.00 | 0.69 | 0.25 | 56 | 1011.8 |
| 20260506202521 | 59 | 322 | 1.7 | 5.2 | 0.00 | 0.69 | 0.25 | 57 | 1011.7 |
| 20260506201518 | 59 | 331 | 1.7 | 4.3 | 0.00 | 0.69 | 0.25 | 57 | 1011.6 |
| 20260506200519 | 60 | 338 | 1.7 | 4.3 | 0.00 | 0.69 | 0.25 | 56 | 1011.6 |
| 20260506195518 | 61 | 328 | 2.6 | 5.2 | 0.00 | 0.69 | 0.25 | 55 | 1011.5 |
| 20260506194522 | 60 | 333 | 2.6 | 6.1 | 0.00 | 0.69 | 0.25 | 55 | 1011.6 |
| 20260506193519 | 60 | 331 | 1.7 | 6.1 | 0.00 | 0.69 | 0.25 | 56 | 1011.4 |
| 20260506192519 | 61 | 345 | 1.7 | 4.3 | 0.00 | 0.69 | 0.25 | 54 | 1011.3 |
| 20260506191521 | 61 | 340 | 1.7 | 5.2 | 0.00 | 0.69 | 0.25 | 56 | 1011.4 |
| 20260506190522 | 60 | 341 | 1.7 | 3.5 | 0.00 | 0.69 | 0.25 | 56 | 1011.6 |
| 20260506185521 | 59 | 335 | 1.7 | 3.5 | 0.00 | 0.69 | 0.25 | 56 | 1011.5 |
| 20260506184518 | 59 | 345 | 1.7 | 4.3 | 0.00 | 0.69 | 0.25 | 57 | 1011.7 |
| 20260506183520 | 58 | 321 | 2.6 | 7.0 | 0.00 | 0.69 | 0.25 | 57 | 1011.7 |
| 20260506182520 | 58 | 329 | 1.7 | 5.2 | 0.00 | 0.69 | 0.25 | 57 | 1011.8 |
| 20260506181520 | 58 | 318 | 2.6 | 5.2 | 0.00 | 0.69 | 0.25 | 56 | 1011.8 |
| 20260506180518 | 58 | 328 | 1.7 | 4.3 | 0.00 | 0.69 | 0.25 | 58 | 1011.8 |
| 20260506175517 | 59 | 313 | 2.6 | 7.0 | 0.00 | 0.69 | 0.25 | 56 | 1011.9 |
| 20260506174518 | 59 | 330 | 1.7 | 4.3 | 0.00 | 0.69 | 0.25 | 57 | 1012.0 |
| 20260506173524 | 59 | 322 | 1.7 | 4.3 | 0.00 | 0.69 | 0.25 | 57 | 1011.9 |
| 20260506172519 | 59 | 322 | 2.6 | 5.2 | 0.00 | 0.69 | 0.25 | 58 | 1011.9 |
| 20260506171518 | 58 | 321 | 1.7 | 6.1 | 0.00 | 0.69 | 0.25 | 58 | 1011.9 |
| 20260506170519 | 58 | 327 | 1.7 | 4.3 | 0.00 | 0.69 | 0.25 | 59 | 1011.8 |
| 20260506165518 | 58 | 310 | 2.6 | 6.1 | 0.00 | 0.69 | 0.25 | 58 | 1011.9 |
| 20260506164519 | 57 | 303 | 0.9 | 3.5 | 0.00 | 0.69 | 0.25 | 61 | 1012.3 |
| 20260506163519 | 57 | 316 | 2.6 | 6.1 | 0.00 | 0.69 | 0.25 | 61 | 1012.3 |
| 20260506162519 | 57 | 305 | 1.7 | 6.1 | 0.00 | 0.69 | 0.25 | 61 | 1012.0 |
| 20260506161520 | 56 | 300 | 1.7 | 3.5 | 0.00 | 0.69 | 0.25 | 65 | 1012.1 |
| 20260506160519 | 56 | 319 | 1.7 | 4.3 | 0.00 | 0.69 | 0.25 | 68 | 1012.0 |
| 20260506155520 | 55 | 341 | 1.7 | 5.2 | 0.00 | 0.69 | 0.25 | 68 | 1011.9 |
| 20260506154517 | 54 | 326 | 1.7 | 4.3 | 0.00 | 0.69 | 0.25 | 72 | 1012.0 |
| 20260506153520 | 54 | 345 | 1.7 | 3.5 | 0.00 | 0.69 | 0.25 | 72 | 1011.9 |
| 20260506152520 | 53 | 351 | 1.7 | 3.5 | 0.00 | 0.69 | 0.25 | 75 | 1011.8 |
| 20260506151522 | 52 | 357 | 1.7 | 3.5 | 0.00 | 0.69 | 0.25 | 77 | 1011.7 |
| 20260506150518 | 52 | 330 | 1.7 | 5.2 | 0.00 | 0.69 | 0.25 | 78 | 1011.7 |
| 20260506145518 | 51 | 340 | 1.7 | 4.3 | 0.00 | 0.69 | 0.25 | 79 | 1011.7 |
| 20260506144518 | 51 | 350 | 1.7 | 2.6 | 0.00 | 0.69 | 0.25 | 79 | 1011.7 |
| 20260506143522 | 50 | 321 | 0.9 | 4.3 | 0.00 | 0.69 | 0.25 | 81 | 1011.7 |
| 20260506142518 | 49 | 292 | 0.9 | 3.5 | 0.00 | 0.69 | 0.25 | 82 | 1011.5 |
| 20260506141519 | 49 | 310 | 2.6 | 7.0 | 0.00 | 0.69 | 0.25 | 85 | 1011.3 |
| 20260506140519 | 49 | 324 | 2.6 | 6.1 | 0.00 | 0.69 | 0.25 | 89 | 1011.2 |
| 20260506135522 | 49 | 337 | 1.7 | 2.6 | 0.00 | 0.69 | 0.25 | 90 | 1011.2 |
| 20260506134523 | 49 | 312 | 1.7 | 3.5 | 0.00 | 0.69 | 0.25 | 91 | 1011.0 |
| 20260506133522 | 49 | 321 | 1.7 | 4.3 | 0.00 | 0.69 | 0.25 | 92 | 1010.9 |
| 20260506132522 | 48 | 331 | 0.9 | 2.6 | 0.00 | 0.69 | 0.25 | 94 | 1010.9 |
| 20260506131523 | 48 | 323 | 0.9 | 2.6 | 0.00 | 0.69 | 0.25 | 95 | 1010.9 |
| 20260506130523 | 47 | 329 | 1.7 | 2.6 | 0.00 | 0.69 | 0.25 | 96 | 1010.8 |
| 20260506125523 | 48 | 307 | 1.7 | 2.6 | 0.00 | 0.69 | 0.25 | 97 | 1010.8 |
| 20260506124524 | 48 | 312 | 1.7 | 3.5 | 0.00 | 0.69 | 0.25 | 98 | 1010.7 |
| 20260506123524 | 48 | 307 | 0.0 | 0.9 | 0.00 | 0.69 | 0.25 | 98 | 1010.1 |
| 20260506122524 | 47 | 146 | 0.0 | 0.9 | 0.00 | 0.69 | 0.25 | 98 | 1009.9 |
| 20260506121526 | 47 | 347 | 0.0 | 1.7 | 0.00 | 0.69 | 0.25 | 98 | 1010.2 |
| 20260506120525 | 47 | 311 | 0.9 | 4.3 | 0.00 | 0.70 | 0.25 | 98 | 1010.1 |
| 20260506115524 | 47 | 305 | 0.0 | 1.7 | 0.00 | 0.70 | 0.25 | 98 | 1010.1 |
| 20260506114524 | 46 | 288 | 0.0 | 0.9 | 0.00 | 0.70 | 0.25 | 98 | 1010.2 |
| 20260506113524 | 46 | 326 | 0.0 | 0.9 | 0.00 | 0.70 | 0.25 | 98 | 1009.7 |
| 20260506112525 | 47 | 265 | 0.0 | 0.9 | 0.00 | 0.70 | 0.25 | 98 | 1009.4 |
| 20260506111526 | 46 | 233 | 0.9 | 3.5 | 0.00 | 0.70 | 0.25 | 98 | 1009.0 |
| 20260506110525 | 47 | 243 | 0.0 | 1.7 | 0.00 | 0.70 | 0.25 | 98 | 1008.7 |
| 20260506105525 | 47 | 288 | 0.9 | 3.5 | 0.00 | 0.70 | 0.25 | 98 | 1009.2 |
| 20260506104526 | 47 | 294 | 0.9 | 2.6 | 0.00 | 0.70 | 0.25 | 98 | 1009.2 |
| 20260506103526 | 47 | 320 | 0.9 | 1.7 | 0.00 | 0.70 | 0.25 | 98 | 1009.0 |
| 20260506102525 | 47 | 342 | 0.9 | 1.7 | 0.00 | 0.70 | 0.25 | 98 | 1008.6 |
| 20260506101526 | 47 | 311 | 0.0 | 1.7 | 0.00 | 0.70 | 0.25 | 98 | 1008.3 |
| 20260506100526 | 47 | 290 | 0.0 | 2.6 | 0.00 | 0.70 | 0.25 | 98 | 1007.9 |
| 20260506095526 | 47 | 354 | 0.9 | 2.6 | 0.02 | 0.70 | 0.25 | 98 | 1007.8 |
| 20260506094526 | 47 | 302 | 0.9 | 3.5 | 0.03 | 0.70 | 0.25 | 98 | 1008.0 |
| 20260506093526 | 47 | 314 | 0.9 | 2.6 | 0.04 | 0.69 | 0.25 | 98 | 1008.0 |
| 20260506092518 | 47 | 306 | 1.7 | 4.3 | 0.06 | 0.69 | 0.25 | 98 | 1008.2 |
| 20260506091519 | 47 | 289 | 0.9 | 4.3 | 0.09 | 0.69 | 0.25 | 98 | 1007.9 |
| 20260506090527 | 47 | 282 | 0.9 | 2.6 | 0.12 | 0.69 | 0.25 | 98 | 1007.7 |
| 20260506085524 | 47 | 313 | 1.7 | 4.3 | 0.11 | 0.68 | 0.23 | 98 | 1008.2 |
| 20260506084525 | 47 | 298 | 1.7 | 5.2 | 0.10 | 0.66 | 0.22 | 98 | 1008.2 |
| 20260506083518 | 48 | 296 | 1.7 | 4.3 | 0.09 | 0.65 | 0.21 | 98 | 1007.8 |
| 20260506082527 | 48 | 312 | 0.9 | 4.3 | 0.07 | 0.63 | 0.18 | 98 | 1007.8 |
| 20260506081529 | 48 | 298 | 0.9 | 3.5 | 0.05 | 0.61 | 0.16 | 98 | 1007.7 |
| 20260506080520 | 48 | 311 | 1.7 | 4.3 | 0.02 | 0.57 | 0.12 | 98 | 1007.5 |
| 20260506073519 | 49 | 300 | 1.7 | 6.1 | 0.05 | 0.56 | 0.11 | 98 | 1007.1 |
| 20260506072520 | 49 | 315 | 2.6 | 6.1 | 0.05 | 0.56 | 0.11 | 98 | 1007.0 |
| 20260506071520 | 49 | 314 | 1.7 | 4.3 | 0.06 | 0.55 | 0.10 | 98 | 1007.0 |
| 20260506070520 | 50 | 321 | 2.6 | 5.2 | 0.07 | 0.55 | 0.10 | 98 | 1007.1 |
| 20260506061518 | 51 | 265 | 0.0 | 1.7 | 0.04 | 0.49 | 0.04 | 98 | 1007.0 |
| 20260506060518 | 51 | 293 | 0.9 | 2.6 | 0.03 | 0.48 | 0.03 | 98 | 1007.1 |
| 20260506050519 | 52 | 312 | 0.0 | 2.6 | 0.00 | 0.45 | 0.00 | 98 | 1007.5 |
| 20260506044520 | 53 | 323 | 0.9 | 2.6 | 0.01 | 0.45 | 0.00 | 98 | 1007.5 |
| 20260506043521 | 54 | 333 | 0.0 | 2.6 | 0.03 | 0.45 | 0.00 | 98 | 1007.7 |
| 20260506042520 | 55 | 329 | 0.9 | 2.6 | 0.06 | 0.45 | 0.00 | 98 | 1007.6 |
| 20260506041519 | 57 | 319 | 1.7 | 3.5 | 0.08 | 0.45 | 0.00 | 98 | 1007.6 |
| 20260506040519 | 58 | 203 | 0.0 | 1.7 | 0.11 | 0.45 | 0.00 | 98 | 1007.5 |
| 20260506035521 | 58 | 176 | 0.9 | 2.6 | 0.12 | 0.45 | 0.45 | 98 | 1007.6 |
| 20260506034521 | 58 | 180 | 0.0 | 2.6 | 0.11 | 0.44 | 0.44 | 98 | 1007.9 |
| 20260506033518 | 58 | 200 | 0.9 | 2.6 | 0.11 | 0.41 | 0.41 | 98 | 1008.0 |
| 20260506032517 | 58 | 193 | 0.0 | 1.7 | 0.11 | 0.39 | 0.39 | 98 | 1008.1 |
| 20260506031521 | 59 | 189 | 0.0 | 2.6 | 0.10 | 0.37 | 0.37 | 98 | 1008.1 |
| 20260506030519 | 59 | 172 | 0.0 | 2.6 | 0.10 | 0.34 | 0.34 | 98 | 1008.1 |
| 20260506025518 | 59 | 192 | 0.0 | 2.6 | 0.11 | 0.33 | 0.33 | 98 | 1008.1 |
| 20260506024519 | 59 | 179 | 0.9 | 3.5 | 0.12 | 0.32 | 0.32 | 98 | 1008.0 |
| 20260506023519 | 59 | 161 | 0.0 | 4.3 | 0.13 | 0.30 | 0.30 | 98 | 1008.2 |
| 20260506022517 | 59 | 196 | 0.0 | 2.6 | 0.11 | 0.28 | 0.28 | 98 | 1008.2 |
| 20260506021521 | 59 | 178 | 0.0 | 2.6 | 0.10 | 0.27 | 0.27 | 98 | 1008.2 |
| 20260506020519 | 59 | 209 | 0.0 | 1.7 | 0.08 | 0.25 | 0.25 | 98 | 1008.2 |
| 20260506015519 | 59 | 269 | 0.0 | 0.9 | 0.05 | 0.22 | 0.22 | 98 | 1008.0 |
| 20260506014517 | 59 | 200 | 0.0 | 1.7 | 0.05 | 0.20 | 0.20 | 98 | 1008.0 |
| 20260506013519 | 59 | 0.0 | 0.0 | 0.04 | 0.18 | 0.18 | 98 | 1007.9 | |
| 20260506012521 | 59 | 0.0 | 0.0 | 0.03 | 0.17 | 0.17 | 98 | 1007.8 | |
| 20260506011521 | 59 | 0.0 | 0.0 | 0.03 | 0.17 | 0.17 | 98 | 1007.5 | |
| 20260506010519 | 60 | 0.0 | 0.0 | 0.03 | 0.16 | 0.16 | 98 | 1007.6 | |
| 20260506005519 | 60 | 161 | 0.0 | 1.7 | 0.03 | 0.16 | 0.16 | 98 | 1007.7 |
| 20260506004518 | 60 | 190 | 0.0 | 2.6 | 0.02 | 0.15 | 0.15 | 98 | 1007.8 |
| 20260506003518 | 60 | 18 | 0.0 | 0.9 | 0.01 | 0.14 | 0.14 | 98 | 1007.9 |
| 20260506002518 | 60 | 250 | 0.0 | 0.0 | 0.00 | 0.14 | 0.14 | 98 | 1007.7 |
| 20260506001519 | 60 | 175 | 0.0 | 2.6 | 0.00 | 0.14 | 0.14 | 98 | 1007.7 |
| 20260506000518 | 60 | 195 | 0.0 | 1.7 | 0.00 | 0.14 | 0.14 | 98 | 1007.7 |